This is the latest recevied weather packets stored in our database for station/object VK7TM-1. If no packets are shown the sender has not sent any weather packets the latest 10 day(s).
| Time | Temp. | Humidity | Pressure | Rain* | Wind** | Luminosity | Snow |
|---|---|---|---|---|---|---|---|
| 1778392422 | 14.44° C | 82% | 1032.7 hPa | 0 mm | - | 55 W/m² | - |
| 1778392132 | 15° C | 82% | 1032.6 hPa | 0 mm | - | 59 W/m² | - |
| 1778391842 | 15° C | 81% | 1032.8 hPa | 0 mm | - | 61 W/m² | - |
| 1778391552 | 15° C | 81% | 1032.7 hPa | 0 mm | - | 65 W/m² | - |
| 1778391262 | 15° C | 81% | 1032.5 hPa | 0 mm | - | 68 W/m² | - |
| 1778390972 | 15° C | 80% | 1032.4 hPa | 0 mm | - | 72 W/m² | - |
| 1778390682 | 15° C | 79% | 1032.6 hPa | 0 mm | - | 76 W/m² | - |
| 1778390392 | 15° C | 78% | 1032.4 hPa | 0 mm | - | 82 W/m² | - |
| 1778390102 | 15° C | 78% | 1032.4 hPa | 0 mm | - | 87 W/m² | - |
| 1778389812 | 15° C | 79% | 1032.4 hPa | 0 mm | - | 97 W/m² | - |
| 1778389522 | 15° C | 78% | 1032.5 hPa | 0 mm | - | 109 W/m² | - |
| 1778389232 | 15° C | 78% | 1032.4 hPa | 0 mm | - | 128 W/m² | - |
| 1778388942 | 15° C | 79% | 1032.2 hPa | 0 mm | - | 158 W/m² | - |
| 1778388652 | 15° C | 78% | 1032.2 hPa | 0 mm | - | 184 W/m² | - |
| 1778388362 | 15° C | 77% | 1032.1 hPa | 0 mm | - | 205 W/m² | - |
| 1778388072 | 15° C | 76% | 1032.1 hPa | 0 mm | - | 223 W/m² | - |
| 1778387782 | 15° C | 76% | 1032.1 hPa | 0 mm | - | 241 W/m² | - |
| 1778387492 | 15° C | 74% | 1032.1 hPa | 0 mm | - | 254 W/m² | - |
| 1778387202 | 15° C | 75% | 1032 hPa | 0 mm | - | 266 W/m² | - |
| 1778386912 | 15° C | 74% | 1031.9 hPa | 0 mm | - | 279 W/m² | - |
| 1778386622 | 15° C | 75% | 1031.9 hPa | 0 mm | - | 288 W/m² | - |
| 1778386332 | 15° C | 77% | 1032.1 hPa | 0 mm | - | 297 W/m² | - |
| 1778386042 | 15° C | 77% | 1032 hPa | 0 mm | - | 306 W/m² | - |
| 1778385752 | 15.56° C | 75% | 1032.1 hPa | 0 mm | - | 311 W/m² | - |
| 1778385462 | 15.56° C | 74% | 1031.9 hPa | 0 mm | - | 319 W/m² | - |
* Rain latest hour (hover to see other rain measurements)
** Current wind speed in m/s (hover to see current wind gust speed)